Powrót do katalogu

NUSAT-47

AktywnyNaukaSSO
NORAD 66743·PAYLOAD·🇦🇷 Argentina

Wystrzelony Nov 28, 2025 z Vandenberg Space Force Base

Loading…

Następne Przeloty (najbliższe 24 godziny)

TLE

ŚwieżeSource: Space-Track

Epoka: Sep 13, 2026, 17:32 UTC

1 66743U 25276CF  26256.73104388  .00003839  00000-0  17556-3 0  9993
2 66743  97.4114 328.9387 0003127  72.8152 287.3426 15.21133331 43880

Śledź NUSAT-47 w czasie rzeczywistym z AllMySat

Download on the App Store